Wind_Speed
11 8 7 7 8 6 7 8 9 11 11 11 11 10 10 6 7 8 5 4 5 2
12 11 8 9 8 7 8 9 10 11 11 10 11 10 10 9 10 10 9 7 7 4
11 11 11 8 7 8 10 12 12 11 11 11 10 10 10 9 12 11 10 9 10 10
11 11 12 9 8 7 9 11 8 10 11 11 10 9 9 11 11 11 11 11 11 11
13 11 11 11 8 7 6 11 10 10 11 10 10 11 10 9 10 11 10 10 12 12
15 13 13 13 12 11 10 10 10 10 11 11 10 11 9 10 10 10 10 11 11 11
14 14 13 14 16 15 13 12 13 12 12 11 12 12 10 9 10 10 11 11 10 10
12 14 15 16 16 16 15 13 12 13 13 12 11 10 12 11 10 11 10 11 11 12
14 15 16 15 16 18 15 12 12 12 12 12 11 16 16 15 12 12 12 12 12 13
18 19 18 15 13 14 15 12 12 11 11 15 19 21 19 18 17 14 13 13 13 12
16 13 11 11 12 13 12 9 8 8 14 16 16 16 17 17 18 16 14 13 14 14
12 11 10 10 11 11 9 8 10 13 14 13 12 10 11 10 9 11 14 17 16 17
10 10 11 11 11 12 12 11 11 11 11 12 12 11 9 7 1 5 7 12 13 14
12 11 12 11 10 10 10 9 8 8 7 9 6 6 5 6 5 5 0 1 3 7
Wind_Direction
203 201 193 202 202 179 202 189 196 190 184 190 204 214 220 226 206 223 215 221 205 224
215 216 208 203 210 212 199 201 192 196 200 202 205 214 226 213 219 216 221 238 241 235
219 218 220 216 215 220 217 196 205 200 201 207 207 208 208 221 225 225 226 234 245 243
217 212 220 232 221 205 205 199 208 207 199 202 208 213 213 204 215 227 230 230 245 255
226 221 217 219 221 217 207 210 209 203 207 216 215 219 223 218 228 232 236 242 247 251
224 227 222 220 221 217 213 208 207 207 218 227 228 229 238 228 226 226 236 243 248 257
220 225 224 218 220 223 227 223 226 231 235 237 232 227 221 224 228 227 231 237 240 247
225 225 221 220 214 215 222 224 225 228 230 228 230 233 233 228 230 238 234 238 244 248
234 221 214 208 207 208 211 216 221 224 227 225 222 233 236 234 231 239 244 249 259 253
230 226 208 203 203 208 212 216 222 225 220 221 220 229 234 238 242 238 241 248 252 255
219 214 195 194 212 214 217 210 217 227 231 229 234 237 236 237 241 247 245 245 250 255
195 196 196 204 204 198 189 185 194 203 220 222 229 241 242 229 220 227 234 244 254 254
169 172 183 190 190 194 185 194 207 217 233 249 235 217 222 239 274 233 250 258 263 265
163 170 168 173 171 167 168 176 188 198 204 215 223 239 233 247 245 238 248 318 315 289
Height
1604 1605 1606 1608 1609 1611 1610 1612 1612 1614 1617 1619 1621 1622 1624 1626 1627 1628 1629 1630 1630 1632
1601 1604 1606 1607 1607 1609 1610 1611 1611 1614 1615 1617 1618 1620 1622 1624 1625 1626 1627 1629 1629 1630
1599 1601 1604 1604 1606 1605 1607 1609 1610 1611 1613 1615 1616 1618 1619 1623 1623 1624 1627 1628 1628 1628
1598 1598 1600 1602 1603 1603 1604 1606 1608 1610 1612 1613 1615 1616 1618 1619 1621 1622 1624 1625 1625 1625
1595 1597 1598 1600 1601 1601 1602 1604 1606 1608 1610 1611 1613 1614 1616 1617 1620 1620 1622 1623 1623 1623
1592 1594 1595 1597 1599 1600 1601 1603 1604 1607 1608 1609 1612 1613 1614 1614 1616 1618 1619 1621 1621 1621
1588 1590 1592 1594 1595 1597 1600 1602 1603 1604 1606 1608 1609 1611 1611 1612 1613 1614 1616 1617 1618 1619
1584 1586 1587 1589 1591 1594 1596 1599 1600 1601 1603 1605 1607 1608 1608 1610 1611 1612 1613 1614 1614 1615
1581 1583 1583 1586 1587 1589 1592 1595 1596 1598 1601 1602 1605 1605 1606 1607 1608 1609 1610 1611 1612 1611
1578 1579 1581 1582 1585 1586 1589 1591 1592 1594 1596 1597 1597 1599 1601 1602 1604 1605 1606 1607 1607 1608
1576 1577 1576 1579 1582 1584 1587 1589 1590 1592 1592 1592 1592 1594 1596 1597 1599 1601 1602 1602 1602 1602
1575 1576 1576 1579 1580 1582 1584 1586 1588 1587 1588 1590 1591 1592 1593 1594 1595 1596 1596 1594 1595 1595
1574 1575 1577 1578 1580 1581 1581 1582 1585 1586 1586 1589 1590 1588 1590 1592 1593 1593 1593 1593 1591 1591
1573 1574 1576 1578 1578 1580 1581 1581 1584 1585 1585 1589 1588 1587 1588 1590 1591 1591 1592 1592 1591 1589